When you browse on this site, cookies collect data to enhance your experience and personalize the content and advertising you see.
Visit our Privacy Policy to learn more. By continuing to use the site, you agree to this use of cookies and data.
  • In Hungary
  • List of Countries
  • For 7 days
  • Water Temperature
  • Weather Map
  • News
  • Weather Widgets
  • user-avatar
    Login

    Hourly Weather Rakovnik

    Today, 18 August, Sunday

    Time Temperature Precipitation Wind Pressure Humidity
    00:00 +18°C° 0 mm 2 mps 729 mmHg 79%
    01:00 +18°C° 0 mm 2 mps 729 mmHg 81%
    02:00 +18°C° 0.1 mm 2 mps 729 mmHg 84%
    03:00 +18°C° 0.1 mm 2 mps 729 mmHg 87%
    04:00 +17°C° 0.1 mm 2 mps 728 mmHg 90%
    05:00 +17°C° 0.1 mm 2 mps 728 mmHg 90%
    06:00 +17°C° 0.1 mm 2 mps 728 mmHg 91%
    07:00 +17°C° 0.1 mm 2 mps 728 mmHg 91%
    08:00 +20°C° 0 mm 3 mps 728 mmHg 79%
    09:00 +23°C° 0 mm 4 mps 728 mmHg 67%
    10:00 +26°C° 0 mm 5 mps 728 mmHg 55%
    11:00 +28°C° 0 mm 5 mps 728 mmHg 53%
    12:00 +29°C° 0 mm 5 mps 728 mmHg 50%
    13:00 +30°C° 0 mm 5 mps 728 mmHg 48%
    14:00 +30°C° 0 mm 5 mps 728 mmHg 48%
    15:00 +32°C° 0 mm 5 mps 728 mmHg 47%
    16:00 +32°C° 0 mm 4 mps 728 mmHg 47%
    17:00 +29°C° 0 mm 4 mps 728 mmHg 53%
    18:00 +27°C° 0 mm 3 mps 728 mmHg 60%
    19:00 +26°C° 0 mm 2 mps 728 mmHg 67%
    20:00 +24°C° 0.4 mm 2 mps 728 mmHg 72%
    21:00 +23°C° 0.4 mm 2 mps 728 mmHg 77%
    22:00 +21°C° 0.4 mm 2 mps 728 mmHg 82%
    23:00 +21°C° 1.1 mm 2 mps 728 mmHg 85%

    Tomorrow, 19 August, Monday

    Time Temperature Precipitation Wind Pressure Humidity
    00:00 +20°C° 1.1 mm 2 mps 729 mmHg 87%
    01:00 +20°C° 1.1 mm 2 mps 729 mmHg 90%
    02:00 +19°C° 2.4 mm 2 mps 729 mmHg 91%
    03:00 +19°C° 2.4 mm 2 mps 730 mmHg 91%
    04:00 +19°C° 2.4 mm 2 mps 730 mmHg 92%
    05:00 +18°C° 1.3 mm 2 mps 731 mmHg 92%
    06:00 +18°C° 1.3 mm 3 mps 731 mmHg 93%
    07:00 +18°C° 1.3 mm 3 mps 731 mmHg 93%
    08:00 +19°C° 1.3 mm 3 mps 732 mmHg 90%
    09:00 +20°C° 1.3 mm 4 mps 732 mmHg 88%
    10:00 +20°C° 1.3 mm 4 mps 733 mmHg 86%
    11:00 +21°C° 0.4 mm 4 mps 733 mmHg 79%
    12:00 +22°C° 0.4 mm 4 mps 733 mmHg 72%
    13:00 +24°C° 0.4 mm 3 mps 734 mmHg 65%
    14:00 +25°C° 0 mm 3 mps 734 mmHg 60%
    15:00 +25°C° 0 mm 3 mps 734 mmHg 56%
    16:00 +26°C° 0 mm 3 mps 734 mmHg 51%
    17:00 +24°C° 0 mm 3 mps 734 mmHg 57%
    18:00 +23°C° 0 mm 2 mps 734 mmHg 63%
    19:00 +21°C° 0 mm 1 mps 734 mmHg 68%
    20:00 +21°C° 0 mm 1 mps 734 mmHg 70%
    21:00 +20°C° 0 mm 1 mps 734 mmHg 72%
    22:00 +17°C° 0 mm 0 mps 734 mmHg 73%
    23:00 +17°C° 0 mm 0 mps 734 mmHg 74%

    Day after tomorrow, 20 August, Tuesday

    Time Temperature Precipitation Wind Pressure Humidity
    00:00 +17°C° 0 mm 0 mps 734 mmHg 75%
    01:00 +16°C° 0 mm 0 mps 734 mmHg 76%
    02:00 +16°C° 0 mm 0 mps 734 mmHg 77%
    03:00 +16°C° 0 mm 0 mps 734 mmHg 77%
    04:00 +16°C° 0 mm 0 mps 734 mmHg 78%
    05:00 +16°C° 0 mm 0 mps 734 mmHg 78%
    06:00 +17°C° 0 mm 0 mps 735 mmHg 78%
    07:00 +17°C° 0 mm 0 mps 735 mmHg 79%
    08:00 +18°C° 0.1 mm 0 mps 735 mmHg 77%
    09:00 +19°C° 0.1 mm 0 mps 735 mmHg 76%
    10:00 +21°C° 0.1 mm 1 mps 735 mmHg 74%
    11:00 +22°C° 0.5 mm 1 mps 736 mmHg 73%
    12:00 +23°C° 0.5 mm 1 mps 736 mmHg 72%
    13:00 +23°C° 0.5 mm 1 mps 736 mmHg 71%
    14:00 +22°C° 0.5 mm 1 mps 736 mmHg 76%
    15:00 +20°C° 0.5 mm 2 mps 735 mmHg 80%
    16:00 +19°C° 0.5 mm 2 mps 735 mmHg 85%
    17:00 +19°C° 0.4 mm 2 mps 736 mmHg 86%
    18:00 +18°C° 0.4 mm 2 mps 736 mmHg 88%
    19:00 +17°C° 0.4 mm 3 mps 736 mmHg 89%
    20:00 +17°C° 0.7 mm 2 mps 736 mmHg 90%
    21:00 +16°C° 0.7 mm 2 mps 737 mmHg 92%
    22:00 +16°C° 0.7 mm 2 mps 737 mmHg 93%
    23:00 +16°C° 1.9 mm 2 mps 737 mmHg 94%

    21 August, Wednesday

    Time Temperature Precipitation Wind Pressure Humidity
    00:00 +15°C° 1.9 mm 1 mps 737 mmHg 95%
    01:00 +15°C° 1.9 mm 1 mps 737 mmHg 95%
    02:00 +15°C° 1.5 mm 2 mps 737 mmHg 95%
    03:00 +15°C° 1.5 mm 2 mps 738 mmHg 94%
    04:00 +13°C° 1.5 mm 3 mps 738 mmHg 94%
    05:00 +14°C° 1.4 mm 2 mps 738 mmHg 94%
    06:00 +14°C° 1.4 mm 1 mps 739 mmHg 94%
    07:00 +14°C° 1.4 mm 1 mps 739 mmHg 94%
    08:00 +15°C° 0.2 mm 1 mps 739 mmHg 89%
    09:00 +16°C° 0.2 mm 1 mps 740 mmHg 85%
    10:00 +18°C° 0.2 mm 1 mps 740 mmHg 80%
    11:00 +19°C° 0.3 mm 1 mps 740 mmHg 77%
    12:00 +20°C° 0.3 mm 1 mps 740 mmHg 73%
    13:00 +21°C° 0.3 mm 1 mps 740 mmHg 70%
    14:00 +20°C° 0.2 mm 2 mps 739 mmHg 70%
    15:00 +20°C° 0.2 mm 2 mps 739 mmHg 70%
    16:00 +20°C° 0.2 mm 2 mps 739 mmHg 70%
    17:00 +19°C° 0.1 mm 2 mps 739 mmHg 75%
    18:00 +18°C° 0.1 mm 2 mps 739 mmHg 80%
    19:00 +18°C° 0.1 mm 1 mps 739 mmHg 85%
    20:00 +16°C° 0 mm 1 mps 739 mmHg 86%
    21:00 +15°C° 0 mm 1 mps 739 mmHg 87%
    22:00 +14°C° 0 mm 0 mps 739 mmHg 89%
    23:00 +13°C° 0 mm 0 mps 739 mmHg 89%

    22 August, Thursday

    Time Temperature Precipitation Wind Pressure Humidity
    00:00 +14°C° 0 mm 1 mps 739 mmHg 90%
    01:00 +14°C° 0 mm 1 mps 739 mmHg 90%
    02:00 +14°C° 0 mm 1 mps 739 mmHg 91%
    03:00 +13°C° 0 mm 1 mps 739 mmHg 91%
    04:00 +13°C° 0 mm 1 mps 738 mmHg 92%
    05:00 +14°C° 0 mm 1 mps 738 mmHg 89%
    06:00 +15°C° 0 mm 1 mps 739 mmHg 86%
    07:00 +15°C° 0 mm 1 mps 739 mmHg 84%
    08:00 +17°C° 0 mm 2 mps 739 mmHg 77%
    09:00 +18°C° 0 mm 2 mps 739 mmHg 70%
    10:00 +20°C° 0 mm 3 mps 739 mmHg 64%
    11:00 +21°C° 0 mm 3 mps 738 mmHg 60%
    12:00 +22°C° 0 mm 3 mps 738 mmHg 56%
    13:00 +24°C° 0 mm 3 mps 738 mmHg 53%
    14:00 +24°C° 0 mm 3 mps 738 mmHg 53%
    15:00 +24°C° 0 mm 3 mps 738 mmHg 53%
    16:00 +24°C° 0 mm 3 mps 737 mmHg 52%
    17:00 +21°C° 0 mm 3 mps 737 mmHg 59%
    18:00 +20°C° 0 mm 2 mps 737 mmHg 66%
    19:00 +18°C° 0 mm 2 mps 737 mmHg 73%
    20:00 +18°C° 0 mm 1 mps 737 mmHg 77%
    21:00 +16°C° 0 mm 1 mps 738 mmHg 82%
    22:00 +15°C° 0 mm 1 mps 738 mmHg 86%
    23:00 +15°C° 0 mm 1 mps 738 mmHg 87%

    23 August, Friday

    Time Temperature Precipitation Wind Pressure Humidity
    00:00 +15°C° 0 mm 1 mps 738 mmHg 88%
    01:00 +14°C° 0 mm 1 mps 738 mmHg 89%
    02:00 +14°C° 0 mm 1 mps 738 mmHg 90%
    03:00 +14°C° 0 mm 1 mps 738 mmHg 90%
    04:00 +12°C° 0 mm 0 mps 738 mmHg 91%
    05:00 +13°C° 0 mm 0 mps 738 mmHg 87%
    06:00 +14°C° 0 mm 0 mps 738 mmHg 84%
    07:00 +15°C° 0 mm 0 mps 738 mmHg 81%
    08:00 +19°C° 0 mm 1 mps 739 mmHg 74%
    09:00 +21°C° 0 mm 1 mps 739 mmHg 67%
    10:00 +21°C° 0 mm 2 mps 739 mmHg 60%
    11:00 +23°C° 0 mm 2 mps 739 mmHg 57%
    12:00 +24°C° 0 mm 2 mps 739 mmHg 53%
    13:00 +25°C° 0 mm 3 mps 738 mmHg 49%
    14:00 +25°C° 0 mm 3 mps 738 mmHg 49%
    15:00 +25°C° 0 mm 3 mps 738 mmHg 49%
    16:00 +25°C° 0 mm 3 mps 738 mmHg 49%
    17:00 +22°C° 0 mm 3 mps 737 mmHg 57%
    18:00 +21°C° 0 mm 3 mps 737 mmHg 64%
    19:00 +19°C° 0 mm 2 mps 737 mmHg 72%
    20:00 +18°C° 0 mm 2 mps 737 mmHg 73%
    21:00 +17°C° 0 mm 2 mps 737 mmHg 75%
    22:00 +16°C° 0 mm 2 mps 737 mmHg 77%
    23:00 +16°C° 0 mm 2 mps 737 mmHg 78%
    Show more